Agua de Enmedio, Mexico

4:02 PM MST on December 12, 2017 (GMT -0700)
Agua de Enmedio

Weather History for 76405 - November, 2013

Change the Weather History Date:

Monday, November 11, 2013

  Actual Average Record
Temperature  
Mean Temperature 74 °F -  
Max Temperature 88 °F 80 °F - ()
Min Temperature 60 °F 57 °F - ()
Cooling Degree Days 9    
Growing Degree Days 24 (Base 50)    
Moisture  
Dew Point 56 °F    
Average Humidity 51    
Maximum Humidity 82    
Minimum Humidity 24    
Precipitation  
Precipitation 0.00 in - - ()
Sea Level Pressure  
Sea Level Pressure 29.97 in    
Wind  
Wind Speed 4 mph ()    
Max Wind Speed 14 mph    
Max Gust Speed -    
Visibility 10.6 miles    
Events      
T = Trace of Precipitation, MM = Missing Value Source: Averaged Metar Reports

Daily Weather History Graph

Daily Weather History Graph

Search for Another Location

Airport or City:

Trip Planner

Search our weather history database for the weather conditions in past years. The results will help you decide how hot, cold, wet, or windy it might be!

Date:

Astronomy

Nov. 11, 2013 Rise Set
Actual Time 6:34 AM MST 5:36 PM MST
Civil Twilight 6:10 AM MST 6:00 PM MST
Nautical Twilight 5:43 AM MST 6:27 PM MST
Astronomical Twilight 5:16 AM MST 6:54 PM MST
Moon 1:45 PM MST (11/11) 1:01 AM MST (11/11)
Length of Visible Light 11h 49m
Length of Day
11h 01m
Waxing Gibbous, 67% of the Moon is Illuminated
Nov 11
Waxing Gibbous
Nov 17
Full
Nov 25
Last Quarter
Dec 2
New
Dec 9
First Quarter

Hourly Weather History & Observations

Time (MST) Temp. Heat Index Dew Point Humidity Pressure Visibility Wind Dir Wind Speed Gust Speed Precip Events Conditions
4:50 AM 63 °F - 56 °F 72% 29.94 in 2 mi South 2.2 mph - -  
5:45 AM 57.2 °F - 51.8 °F 82% 29.97 in 10.0 mi South 4.6 mph - N/A   Clear
7:50 AM 68 °F - 58 °F 63% 29.99 in 12 mi South 2.2 mph - -   Scattered Clouds
7:51 AM 64.4 °F - 53.6 °F 68% 30.10 in 10.0 mi South 4.6 mph - N/A   Clear
8:47 AM 75.2 °F - 55.4 °F 50% 30.02 in 10.0 mi Calm Calm - N/A   Clear
9:45 AM 78.8 °F - 57.2 °F 47% 30.02 in 10.0 mi NNW 4.6 mph - N/A   Partly Cloudy
10:47 AM 82.4 °F 81.4 °F 53.6 °F 37% 30.12 in 10.0 mi North 11.5 mph - N/A   Partly Cloudy
10:50 AM 85 °F - 59 °F 31% 29.99 in 19 mi NW 6.7 mph - -   Clear
11:40 AM 82.4 °F 81.7 °F 55.4 °F 39% 29.55 in 10.0 mi North 9.2 mph - N/A   Partly Cloudy
12:40 PM 84.2 °F - 51.8 °F 33% 29.95 in 10.0 mi NW 6.9 mph - N/A   Partly Cloudy
1:42 PM 84.2 °F 85.6 °F 64.4 °F 51% 30.04 in 10.0 mi North 13.8 mph - N/A   Partly Cloudy
1:50 PM 88 °F - 57 °F 24% 29.91 in 19 mi NW 8.9 mph - -  
2:54 PM 84.2 °F - 44.6 °F 25% 29.91 in 10.0 mi North 11.5 mph - N/A   Clear
3:54 PM 84.2 °F - 48.2 °F 29% 29.90 in 10.0 mi NNW 11.5 mph - N/A   Clear
4:40 PM 84 °F - 58 °F 31% 29.94 in 19 mi ENE 4.5 mph - -  
4:41 PM 84.2 °F - 51.8 °F 33% 30.01 in 10.0 mi North 9.2 mph - N/A   Clear
5:43 PM 78.8 °F - 53.6 °F 42% 29.91 in 10.0 mi Calm Calm - N/A   Clear
6:50 PM 75.2 °F - 59.0 °F 57% 29.93 in 10.0 mi Calm Calm - N/A   Clear
7:40 PM 75 °F - 66 °F 65% 29.99 in 2 mi North 2.2 mph - -  
7:43 PM 73.4 °F - 60.8 °F 65% 30.06 in 10.0 mi North 5.8 mph - N/A   Clear
8:49 PM 71.6 °F - 60.8 °F 69% 29.97 in 10.0 mi Calm Calm - N/A   Clear
9:49 PM 68.0 °F - 59.0 °F 73% 29.97 in 10.0 mi Calm Calm - N/A   Clear
10:51 PM 64.4 °F - 57.2 °F 77% 30.08 in 10.0 mi South 5.8 mph - N/A   Clear